Flag for Switzerland Weather past 2 weeks in Burgdorf, Bern, Switzerland

Now
55 °F

Broken clouds.


Feels Like: 55 °F
Forecast: 39 / 61 °F
Wind: 1 mph from North

Location: Bern / Belp

Current Time: Sep 22, 2014 at 11:06:35 AM

Latest Report: Sep 22, 2014 at 10:20 AM


Visibility: N/A

Pressure: 30.12 "Hg

Humidity: 77%

Dew point: 48 °F

Location of BurgdorfLocation

Historic Weather in Burgdorf — Graph

°F

Burgdorf temperature yesterday

Maximum temperature yesterday: 70 °F (at 1:20 PM)
Minimum temperature yesterday: 55 °F (at 5:50 AM)
Average temperature yesterday: 61 °F

Past Weeks' High & Low Weather Summary

 TemperatureHumidityPressure
High81 °F (Sep 8, 2:50 PM)100% (Sep 8, 12:50 AM)30.12 "Hg (Sep 8, 12:50 AM)
Low43 °F (Sep 14, 6:20 AM)44% (Sep 7, 5:50 PM)29.86 "Hg (Sep 17, 2:50 PM)
Average61 °F83%30.01 "Hg
* Reported Sep 7 9:20 AM — Sep 22 9:50 AM, Burgdorf, Weather by CustomWeather, © 2014

Note: Actual official high and low records may vary slightly from our data, if they occured in-between our weather recording intervals... More about our weather records

Advertising

Burgdorf weather history for previous 24 hours

 ConditionsComfort  
Time TempWeatherWind HumidityBarometerVisibility
9:50 AM
Sep 22
55 °FPartly sunny.2 mph77%30.12 "HgN/A
9:20 AM55 °FPartly sunny.2 mph77%30.12 "HgN/A
8:50 AM54 °FPartly sunny.2 mph82%30.12 "HgN/A
8:20 AM54 °FPartly sunny.2 mph88%30.12 "HgN/A
7:50 AM54 °FPartly cloudy.1 mph88%30.12 "HgN/A
7:20 AM54 °FPartly cloudy.2 mph94%30.12 "Hg6 mi
6:50 AM54 °FPassing clouds.3 mph100%30.12 "HgN/A
6:20 AM54 °FPartly cloudy.1 mph94%30.09 "HgN/A
5:50 AM54 °FPartly cloudy.1 mph94%30.09 "HgN/A
5:20 AM55 °FPassing clouds.1 mph94%30.09 "HgN/A
4:50 AM55 °FPartly cloudy.1 mph88%30.09 "HgN/A
4:20 AM55 °FMostly cloudy.2 mph94%30.09 "HgN/A
3:50 AM55 °FOvercast.2 mph94%30.09 "HgN/A
3:20 AM55 °FPartly cloudy.1 mph94%30.09 "HgN/A
2:50 AM55 °FPartly cloudy.2 mph94%30.09 "HgN/A
2:20 AM55 °FLight rain. Partly cloudy.3 mph100%30.09 "HgN/A
1:50 AM55 °FLots of rain. Partly cloudy.3 mph100%30.09 "Hg4 mi
1:20 AM55 °FPartly cloudy.5 mph100%30.09 "HgN/A
12:50 AM55 °FSprinkles. Partly cloudy.6 mph100%30.09 "Hg4 mi
12:20 AM55 °FPassing clouds.6 mph94%30.09 "HgN/A
11:50 PM
Sep 21
57 °FSprinkles. Passing clouds.6 mph94%30.09 "HgN/A
11:20 PM57 °FPartly cloudy.5 mph94%30.09 "HgN/A
10:20 PM57 °FPartly cloudy.1 mph94%30.09 "HgN/A
9:50 PM57 °FPartly cloudy.3 mph94%30.09 "HgN/A
9:20 PM57 °FPartly cloudy.5 mph94%30.09 "HgN/A
8:50 PM57 °FSprinkles. Partly cloudy.6 mph94%30.09 "HgN/A
8:20 PM61 °FSprinkles. Broken clouds.8 mph77%30.07 "HgN/A
7:50 PM59 °FBroken clouds.2 mph88%30.07 "HgN/A
7:20 PM59 °FPartly sunny.6 mph88%30.07 "HgN/A
6:50 PM59 °FDrizzle. Partly sunny.2 mph88%30.07 "HgN/A
6:20 PM59 °FBroken clouds.3 mph94%30.07 "HgN/A
5:50 PM59 °FBroken clouds.2 mph88%30.04 "HgN/A
5:20 PM61 °FThundershowers. Broken clouds.7 mph77%30.07 "HgN/A
4:20 PM70 °FStrong thunderstorms. Broken clouds.18 mph64%30.01 "HgN/A
3:50 PM68 °FScattered showers. Broken clouds.6 mph69%30.01 "HgN/A
3:20 PM70 °FBroken clouds.6 mph64%30.01 "HgN/A
2:50 PM70 °FScattered clouds.5 mph64%30.01 "HgN/A
2:20 PM66 °FScattered clouds.10 mph73%30.04 "HgN/A
1:50 PM66 °FScattered clouds.7 mph78%30.04 "HgN/A
1:20 PM70 °FBroken clouds.6 mph69%30.04 "HgN/A
12:50 PM66 °FScattered clouds.6 mph78%30.04 "HgN/A
12:20 PM64 °FBroken clouds.10 mph83%30.07 "HgN/A
11:20 AM66 °FScattered clouds.10 mph78%30.07 "HgN/A
Weather by CustomWeather, © 2014

See weather overviewHow to use our weather pages